EW9826 Weather Reports


time (UTC)temp
C
wind
direction
speed
KPH
gust
KPH
rain 1hr
cm
rain 24hr
cm
rain mn
cm
humidity
%
barometer
mb
20260906151105 23 171 8.0 14.5 0.00 0.00 0.00 48 1022.0
20260906150105 23 169 9.7 19.3 0.00 0.00 0.00 49 1022.1
20260906143604 23 127 8.0 19.3 0.00 0.00 0.00 52 1022.5
20260906143105 23 120 8.0 19.3 0.00 0.00 0.00 52 1022.5
20260906142604 23 186 8.0 12.9 0.00 0.00 0.00 50 1022.6
20260906142105 23 170 4.8 14.5 0.00 0.00 0.00 52 1022.6
20260906140104 22 225 9.7 19.3 0.00 0.00 0.00 53 1023.0
20260906135603 22 96 11.3 22.5 0.00 0.00 0.00 53 1023.0
20260906135104 22 149 9.7 16.1 0.00 0.00 0.00 54 1023.0
20260906134604 22 179 8.0 14.5 0.00 0.00 0.00 54 1023.0
20260906134105 22 128 8.0 14.5 0.00 0.00 0.00 55 1023.0
20260906132105 21 138 8.0 16.1 0.00 0.00 0.00 57 1023.2
20260906131604 21 133 8.0 19.3 0.00 0.00 0.00 56 1023.3
20260906131105 21 149 8.0 19.3 0.00 0.00 0.00 57 1023.5
20260906130104 22 142 9.7 16.1 0.00 0.00 0.00 56 1023.5
20260906125105 21 159 3.2 11.3 0.00 0.00 0.00 56 1023.7
20260906124604 21 171 4.8 11.3 0.00 0.00 0.00 56 1023.8
20260906124105 21 149 4.8 16.1 0.00 0.00 0.00 57 1024.0
20260906123604 21 192 8.0 16.1 0.00 0.00 0.00 55 1024.0
20260906122604 21 141 4.8 12.9 0.00 0.00 0.00 57 1023.9
20260906121605 21 191 8.0 19.3 0.00 0.00 0.00 56 1024.0
20260906121104 21 116 4.8 19.3 0.00 0.00 0.00 56 1024.0
20260906110104 20 158 6.4 11.3 0.00 0.00 0.00 60 1024.6
20260906104604 20 142 9.7 16.1 0.00 0.00 0.00 61 1024.8
20260906104104 20 181 9.7 16.1 0.00 0.00 0.00 60 1025.0
20260906103105 20 173 9.7 16.1 0.00 0.00 0.00 62 1025.1
20260906102604 20 131 8.0 14.5 0.00 0.00 0.00 63 1025.1
20260906102105 20 192 6.4 14.5 0.00 0.00 0.00 63 1025.1
20260906101104 20 171 8.0 16.1 0.00 0.00 0.00 63 1025.4
20260906100104 20 165 6.4 19.3 0.00 0.00 0.00 62 1025.4
20260906095604 20 160 9.7 16.1 0.00 0.00 0.00 62 1025.5
20260906095104 20 213 6.4 14.5 0.00 0.00 0.00 64 1025.4
20260906094105 20 118 4.8 16.1 0.00 0.00 0.00 65 1025.5
20260906093105 19 150 8.0 16.1 0.00 0.00 0.00 64 1025.6
20260906092603 19 163 9.7 19.3 0.00 0.00 0.00 64 1025.6
20260906092105 19 177 9.7 16.1 0.00 0.00 0.00 65 1025.7
20260906090103 19 191 6.4 11.3 0.00 0.00 0.00 68 1025.9
20260906082606 18 166 8.0 16.1 0.00 0.00 0.00 70 1026.1
20260906082104 18 186 4.8 12.9 0.00 0.00 0.00 73 1026.1
20260906081604 18 183 4.8 14.5 0.00 0.00 0.00 72 1026.1
20260906081104 17 160 4.8 19.3 0.00 0.00 0.00 73 1026.1
20260906065603 16 196 1.6 4.8 0.00 0.00 0.00 82 1026.2
20260906065104 16 196 3.2 9.7 0.00 0.00 0.00 83 1026.2
20260906064104 15 195 3.2 8.0 0.00 0.00 0.00 83 1026.1
20260906063604 15 197 3.2 8.0 0.00 0.00 0.00 83 1026.1
20260906063105 15 197 4.8 8.0 0.00 0.00 0.00 84 1026.1
20260906062603 15 198 1.6 8.0 0.00 0.00 0.00 85 1026.1
20260906062104 15 199 3.2 4.8 0.00 0.00 0.00 85 1026.1
20260906060103 14 200 3.2 4.8 0.00 0.00 0.00 88 1025.9
20260906055606 14 200 3.2 4.8 0.00 0.00 0.00 88 1025.9
20260906055105 13 200 3.2 4.8 0.00 0.00 0.00 89 1025.8
20260906054603 13 200 3.2 4.8 0.00 0.00 0.00 89 1025.8
20260906054104 13 200 1.6 4.8 0.00 0.00 0.00 89 1025.9
20260906051604 13 200 3.2 4.8 0.00 0.00 0.00 88 1025.8
20260906051105 13 200 3.2 4.8 0.00 0.00 0.00 88 1025.8
20260906044104 13 200 3.2 4.8 0.00 0.00 0.00 87 1025.6
20260906043604 13 200 3.2 4.8 0.00 0.00 0.00 87 1025.6
20260906043104 13 200 1.6 4.8 0.00 0.00 0.00 87 1025.6
20260906042603 13 200 3.2 4.8 0.00 0.00 0.00 87 1025.9
20260906035603 13 201 3.2 4.8 0.00 0.00 0.00 87 1025.9
20260906035104 13 201 3.2 4.8 0.00 0.00 0.00 87 1026.1
20260906034603 13 201 4.8 8.0 0.00 0.00 0.00 88 1026.1
20260906034104 13 301 3.2 8.0 0.00 0.00 0.00 88 1026.1
20260906032103 13 303 0.0 1.6 0.00 0.00 0.00 88 1026.1
20260906031603 13 303 0.0 4.8 0.00 0.00 0.00 88 1026.1
20260906031103 13 303 1.6 4.8 0.00 0.00 0.00 88 1026.2
20260906025603 13 303 1.6 4.8 0.00 0.00 0.00 88 1026.2
20260906025103 13 303 1.6 3.2 0.00 0.00 0.00 88 1026.2
20260906024603 13 303 0.0 4.8 0.00 0.00 0.00 88 1026.2
20260906024103 13 303 1.6 4.8 0.00 0.00 0.00 88 1026.5
20260906022104 13 303 1.6 4.8 0.00 0.00 0.00 89 1026.7
20260906021603 13 303 0.0 4.8 0.00 0.00 0.00 89 1026.7
20260906015603 13 303 0.0 0.0 0.00 0.00 0.00 89 1026.7
20260906015104 13 303 0.0 0.0 0.00 0.00 0.00 89 1026.7
20260906014603 13 303 0.0 0.0 0.00 0.00 0.00 89 1026.7
20260906014104 13 303 0.0 0.0 0.00 0.00 0.00 89 1026.6
20260906013603 13 303 0.0 0.0 0.00 0.00 0.00 88 1026.6
20260906013104 13 303 0.0 3.2 0.00 0.00 0.00 88 1026.5
20260906012603 13 303 0.0 3.2 0.00 0.00 0.00 89 1026.6
20260906005603 13 303 1.6 3.2 0.00 0.00 0.00 89 1026.7
20260906003104 14 303 0.0 0.0 0.00 0.00 0.00 89 1026.6
20260906002603 14 303 0.0 0.0 0.00 0.00 0.00 89 1026.6
20260906001104 14 303 0.0 3.2 0.00 0.00 0.00 88 1026.6
20260905233104 14 303 0.0 3.2 0.00 0.00 0.00 88 1026.5
20260905232603 14 303 0.0 1.6 0.00 0.00 0.00 88 1026.5
20260905231104 14 303 1.6 3.2 0.00 0.00 0.00 88 1026.6
20260905221602 14 303 0.0 1.6 0.00 0.00 0.00 87 1026.2
20260905221104 14 303 0.0 3.2 0.00 0.00 0.00 87 1026.1
20260905213602 14 303 0.0 0.0 0.00 0.00 0.00 87 1026.0
20260905213103 14 303 0.0 0.0 0.00 0.00 0.00 86 1026.1
20260905212602 15 303 0.0 0.0 0.00 0.00 0.00 86 1026.1
20260905212103 15 303 0.0 0.0 0.00 0.00 0.00 86 1026.1
20260905204602 15 303 0.0 0.0 0.00 0.00 0.00 84 1025.9
20260905204103 15 303 0.0 0.0 0.00 0.00 0.00 84 1025.9
20260905203103 15 303 0.0 0.0 0.00 0.00 0.00 84 1026.0
20260905202603 15 303 0.0 0.0 0.00 0.00 0.00 84 1026.0
20260905202103 15 303 0.0 0.0 0.00 0.00 0.00 83 1025.9
20260905195602 16 303 0.0 0.0 0.00 0.00 0.00 81 1025.7
20260905193603 16 303 0.0 0.0 0.00 0.00 0.00 79 1025.6
20260905193103 16 303 0.0 0.0 0.00 0.00 0.00 78 1025.6
20260905191602 17 303 0.0 0.0 0.00 0.00 0.00 76 1025.6
20260905191104 17 303 0.0 1.6 0.00 0.00 0.00 76 1025.5
20260905185602 17 303 0.0 1.6 0.00 0.00 0.00 74 1025.5
20260905185103 17 303 1.6 1.6 0.00 0.00 0.00 73 1025.5
20260905184603 17 303 0.0 3.2 0.00 0.00 0.00 73 1025.4
20260905184102 17 303 1.6 4.8 0.00 0.00 0.00 73 1025.4
20260905183602 17 303 3.2 4.8 0.00 0.00 0.00 73 1025.3
20260905183103 18 303 1.6 4.8 0.00 0.00 0.00 73 1025.3
20260905182602 18 303 1.6 4.8 0.00 0.00 0.00 72 1025.4
20260905182103 18 303 1.6 4.8 0.00 0.00 0.00 72 1025.1
20260905181602 18 303 0.0 0.0 0.00 0.00 0.00 72 1025.2
20260905181104 18 303 0.0 4.8 0.00 0.00 0.00 72 1025.2
20260905173103 18 303 6.4 11.3 0.00 0.00 0.00 69 1025.1
20260905165102 18 310 9.7 19.3 0.00 0.00 0.00 69 1025.1
20260905164602 18 312 6.4 11.3 0.00 0.00 0.00 69 1024.8
20260905164102 18 315 8.0 12.9 0.00 0.00 0.00 69 1024.8
20260905162103 18 310 9.7 20.9 0.00 0.00 0.00 67 1024.7
20260905161601 18 314 9.7 19.3 0.00 0.00 0.00 66 1024.6
20260905161102 18 291 8.0 25.7 0.00 0.00 0.00 66 1024.6
20260905155602 19 291 8.0 19.3 0.00 0.00 0.00 67 1024.5
20260905155103 18 285 9.7 19.3 0.00 0.00 0.00 68 1024.4
20260905154602 18 269 6.4 14.5 0.00 0.00 0.00 68 1024.3
20260905154102 18 296 8.0 16.1 0.00 0.00 0.00 68 1024.2